Melbourne International Airport
YMML : now visible

Airfield :











YOU CAN JOIN US ON...

 
LOGIN :

Register | Disclaimer

   EN    FR    IT 

 









Legend :    VFR   Marginal VFR   IFR   Intensive IFR   Very Intensive IFR
Visi :
Ceiling :
>= 8 km
>= 3000ft
5 to 8 km
1000 to 3000 ft
1500m to 5 km
500 to 1000 ft
800 to 1500m
200 to 500 ft
< 800m
< 200 ft
Symbols :   Thunderstorms  Fog  Heavy snow  Heavy precipitations  Wind > 20 kt






- Airport Elevation : 434 ft
- IATA code : MEL


YMML - Melbourne International

CURRENT METAR :
  • 271200Z 16009KT CAVOK 18/12 Q1015

EXPIRED METARs :
  • 271130Z 15011KT CAVOK 19/12 Q1015
  • 271100Z 15015KT CAVOK 19/11 Q1014
  • 271030Z 15014KT CAVOK 20/11 Q1014
  • 271000Z 15014KT CAVOK 21/10 Q1013
  • 270930Z 15017KT CAVOK 21/10 Q1013

TAF TAF YMML
Valid from the 27 at 12:00 until the 28 at 18:00 UTC


271102Z 2712/2818 17010KT CAVOK
FM271700 25005KT 9999 FEW020 SCT050
FM280000 12008KT 9999 SCT050
FM280600 04008KT 9999 -SHRA SCT040
FM281500 04007KT 9999 -RA SCT050
TEMPO 2817/2818 5000 RA SCT020 BKN050
YMMM FIR / Oceania



MET'MAP, your aeronautical weather chart ! - Copyright ORBIFLY December 2007 - Disclaimer

ORBIFLY MET'MAP TEAM :

Programming & Development : Alexandra Zaïnal
Concept & original design : Baudouin d'Aumeries
Assistance for programming : Marc-Olivier Méhu
Technical & hardware support : Manuel Goepfert

Contact : metmap@orbifly.com




SOURCES & CREDITS :

   NOAA       Earth
Advisory